Tracking 25949 objects as of 9-Aug-2022
HD Live streaming from Space Station
objects crossing your sky now

LEMUR 2 ALEXANDER

Track LEMUR 2 ALEXANDER now!
10-day predictions
LEMUR 2 ALEXANDER is classified as:


NORAD ID: 43559
Int'l Code: 2018-046F
Perigee: 417.4 km
Apogee: 423.8 km
Inclination: 51.6 °
Period: 92.8 minutes
Semi major axis: 6791 km
RCS: Unknown
Launch date: May 21, 2018
Source: United States (US)
Launch site: WALLOPS ISLAND (WLPIS)
aabbcc
Your satellite tracking list
Your tracking list is empty




NASA's NSSDC Master Catalog

Two Line Element Set (TLE):
1 43559U 18046F   22220.83164086  .00032699  00000-0  55584-3 0  9998
2 43559  51.6367 265.0418 0004688 264.1505  95.8950 15.51124259227474
Source of the keplerian elements: AFSPC